Waarnemingen

Advertentie
Mijn weer
Ouessant, Frankrijk (7100): temperatuur & dauwpunt: 18.07.2019 00:00:00 - 24.07.2019 00:00:00 (CEST)Ouessant, Frankrijk (7100): windsnelheid & windstoten: 18.07.2019 00:00:00 - 24.07.2019 00:00:00 (CEST)Ouessant, Frankrijk (7100): windrichting: 18.07.2019 00:00:00 - 24.07.2019 00:00:00 (CEST)Ouessant, Frankrijk (7100): luchtdruk: 18.07.2019 00:00:00 - 24.07.2019 00:00:00 (CEST)Ouessant, Frankrijk (7100): zicht: 18.07.2019 00:00:00 - 24.07.2019 00:00:00 (CEST)Ouessant, Frankrijk (7100): neerslag: 18.07.2019 00:00:00 - 24.07.2019 00:00:00 (CEST)
Datum & Tijd tt [°C] td [°C] ff [km/u] ff [kn] fx [km/u] fx [kn] dd ppp [hPa] vv [km] rr [mm]
24.07.2019 00:00:00 16,8 16,8 19 10 22 12 W 1013,6 - 0,0
23.07.2019 23:00:00 17,7 17,7 9 5 21 11 WNW 1013,1 6 0,4
23.07.2019 22:00:00 18,1 18,1 13 7 23 13 N 1011,7 - 0,2
23.07.2019 21:00:00 18,7 18,7 13 7 22 12 W 1013,2 - 0,6
23.07.2019 20:00:00 18,5 18,2 19 10 30 16 NW 1012,1 6 0,4
23.07.2019 19:00:00 20,1 18,4 26 14 32 17 W 1013,1 - 0,0
23.07.2019 18:00:00 20,0 17,6 18 10 22 12 WNW 1012,5 - 0,0
23.07.2019 17:00:00 21,7 16,6 14 7 19 10 WNW 1012,9 15 0,0
23.07.2019 16:00:00 22,9 16,0 8 5 21 11 NNW 1012,7 - 0,0
23.07.2019 15:00:00 23,4 16,9 12 6 22 12 W 1013,4 - 0,0
23.07.2019 14:00:00 25,3 17,5 13 7 21 11 ZW 1013,8 17 0,0
23.07.2019 13:00:00 21,2 17,2 7 4 15 8 ZZO 1013,7 - 0,0
23.07.2019 12:00:00 19,7 16,7 7 4 14 8 ZO 1014,4 - 0,0
23.07.2019 11:00:00 17,8 17,2 6 3 14 8 ZO 1014,6 12 0,0
23.07.2019 10:00:00 16,8 16,8 8 4 14 8 O 1014,7 - 0,0
23.07.2019 09:00:00 16,4 16,4 13 7 22 12 O 1015,2 - 0,0
23.07.2019 08:00:00 14,9 14,9 17 9 25 14 O 1015,9 0,1 0,2
23.07.2019 07:00:00 14,5 14,5 14 8 27 15 NNO 1015,7 - 0,0
23.07.2019 06:00:00 14,6 14,6 20 11 26 14 NNO 1016,4 - 0,0
23.07.2019 05:00:00 14,4 14,4 19 11 31 17 NO 1017,6 0,1 0,0
23.07.2019 04:00:00 14,6 14,6 24 13 29 16 ONO 1018,4 - 0,2
23.07.2019 03:00:00 14,7 14,7 16 9 26 14 NO 1019,4 - 0,0
23.07.2019 02:00:00 15,9 15,9 21 12 28 15 NO 1019,8 0,1 0,0
23.07.2019 01:00:00 15,7 15,7 19 10 25 14 NO 1020,3 - 0,0
23.07.2019 00:00:00 16,2 16,2 19 10 24 13 NO 1020,8 - 0,0
22.07.2019 23:00:00 16,5 16,5 18 10 20 11 NNO 1020,9 0,1 0,0
22.07.2019 22:00:00 17,1 16,6 11 6 14 7 NNO 1021,1 - 0,0
22.07.2019 21:00:00 18,9 17,0 10 5 13 7 NNW 1021,2 - 0,0
22.07.2019 20:00:00 20,0 17,2 12 6 19 11 NNW 1021,3 15 0,0
22.07.2019 19:00:00 20,6 17,2 16 9 25 13 WNW 1021,6 - 0,0
22.07.2019 18:00:00 22,4 15,7 17 9 28 15 WZW 1021,8 - 0,0
22.07.2019 17:00:00 22,1 16,4 18 10 27 14 ZW 1022,2 20 0,0
22.07.2019 16:00:00 21,9 17,5 18 10 28 15 ZZW 1022,5 - 0,0
22.07.2019 15:00:00 21,8 17,6 14 8 24 13 Z 1023,2 - 0,0
22.07.2019 14:00:00 22,0 18,0 14 7 23 12 Z 1023,5 18 0,0
22.07.2019 13:00:00 21,6 18,2 12 6 29 15 Z 1023,5 - 0,0
22.07.2019 12:00:00 18,7 17,4 - - 26 14 - 1024,1 - 0,0
22.07.2019 11:00:00 17,6 17,4 12 6 19 11 Z 1023,9 4,0 0,0
22.07.2019 10:00:00 17,0 17,0 11 6 23 12 Z 1023,9 - 0,2
22.07.2019 09:00:00 17,5 17,5 13 7 20 11 Z 1023,5 - 0,0
22.07.2019 08:00:00 16,6 16,6 16 8 21 11 ZW 1022,9 0,5 0,0
22.07.2019 07:00:00 15,9 15,9 19 10 23 12 ZW 1022,6 - 0,0
22.07.2019 06:00:00 15,7 15,7 20 11 24 13 ZW 1022,8 - 0,0
22.07.2019 05:00:00 16,0 16,0 20 11 27 15 ZZW 1023,2 0,5 0,0
22.07.2019 04:00:00 16,0 16,0 20 11 23 13 ZZW 1023,1 - 0,2
22.07.2019 03:00:00 16,0 16,0 21 11 23 13 ZZW 1023,5 - 0,0
22.07.2019 02:00:00 16,0 16,0 18 10 23 12 Z 1023,8 0,2 0,0
22.07.2019 01:00:00 16,1 16,1 18 10 23 12 ZZW 1023,9 - 0,0
22.07.2019 00:00:00 16,1 16,1 18 10 21 12 ZZW 1024,0 - 0,0
21.07.2019 23:00:00 16,5 16,5 18 10 25 13 ZZW 1023,8 16 0,0
21.07.2019 22:00:00 17,0 16,7 19 10 23 13 ZZW 1023,4 - 0,0
21.07.2019 21:00:00 17,7 17,1 17 9 28 15 ZZW 1023,2 - 0,0
21.07.2019 20:00:00 19,1 17,4 21 11 29 16 ZZW 1022,7 18 0,0
21.07.2019 19:00:00 19,6 17,6 21 12 34 18 ZZW 1022,5 - 0,0
21.07.2019 18:00:00 21,0 18,0 24 13 35 19 ZZW 1022,4 - 0,0
21.07.2019 17:00:00 20,4 17,8 23 12 37 20 ZZW 1022,6 18 0,0
21.07.2019 16:00:00 21,6 18,0 26 14 37 20 Z 1022,8 - 0,0
21.07.2019 15:00:00 21,3 17,7 24 13 35 19 Z 1022,7 - 0,0
21.07.2019 14:00:00 21,4 17,4 24 13 36 20 Z 1022,5 18 0,0
21.07.2019 13:00:00 20,6 17,2 22 12 31 17 ZZW 1022,3 - 0,0
21.07.2019 12:00:00 19,6 17,6 21 11 29 16 ZZW 1022,3 - 0,0
21.07.2019 11:00:00 19,3 17,3 18 10 24 13 Z 1021,7 - 0,0
21.07.2019 10:00:00 18,4 17,6 15 8 21 12 Z 1021,4 - 0,0
21.07.2019 09:00:00 17,2 17,2 11 6 16 9 ZZW 1021,0 - 0,0
21.07.2019 08:00:00 16,0 16,0 13 7 20 11 ZZW 1021,0 6 0,0
21.07.2019 07:00:00 14,9 14,9 18 10 20 11 ZZW 1020,5 - 0,2
21.07.2019 06:00:00 15,0 15,0 17 9 19 10 ZZW 1019,9 - 0,0
21.07.2019 05:00:00 14,6 14,6 15 8 16 9 ZZW 1019,7 0,5 0,0
21.07.2019 04:00:00 14,7 14,7 14 7 15 8 ZZW 1019,6 - 0,0
21.07.2019 03:00:00 15,4 15,2 10 5 11 6 ZW 1019,7 - 0,0
21.07.2019 02:00:00 15,5 15,2 10 5 11 6 ZW 1019,7 20 0,2
21.07.2019 01:00:00 15,7 15,2 10 5 11 6 WZW 1019,3 - 0,0
21.07.2019 00:00:00 15,0 14,5 10 6 14 7 WZW 1019,1 - 0,0
20.07.2019 23:00:00 15,2 14,4 13 7 15 8 W 1018,8 20 0,0
20.07.2019 22:00:00 16,4 15,1 13 7 16 8 W 1017,8 - 0,0
20.07.2019 21:00:00 18,3 15,4 13 7 23 12 W 1017,1 - 0,0
20.07.2019 20:00:00 19,2 15,7 16 9 24 13 W 1016,5 20 0,0
20.07.2019 19:00:00 19,7 16,0 16 9 23 12 WNW 1016,1 - 0,0
20.07.2019 18:00:00 18,8 17,1 15 8 33 18 W 1015,8 - 0,0
20.07.2019 17:00:00 18,9 16,9 24 13 36 20 ZW 1015,2 18 0,0
20.07.2019 16:00:00 19,4 17,0 24 13 32 17 W 1014,8 - 0,0
20.07.2019 15:00:00 17,9 17,4 19 11 29 16 WZW 1014,2 - 0,4
20.07.2019 14:00:00 18,2 17,4 24 13 40 22 W 1013,5 - 0,2
20.07.2019 13:00:00 19,7 17,1 27 15 44 24 W 1012,5 - 0,0
20.07.2019 12:00:00 19,3 17,3 29 16 42 23 WZW 1011,9 - 0,0
20.07.2019 11:00:00 19,2 17,3 28 15 44 24 W 1011,4 16 0,0
20.07.2019 10:00:00 18,3 17,1 27 15 38 20 WZW 1011,0 - 0,0
20.07.2019 09:00:00 17,3 16,8 24 13 35 19 WZW 1010,4 - 0,0
20.07.2019 08:00:00 16,6 16,4 23 12 32 17 WZW 1009,7 12 0,0
20.07.2019 07:00:00 15,8 15,8 22 12 31 17 WZW 1009,1 - 0,0
20.07.2019 06:00:00 15,9 15,9 20 11 31 17 W 1008,7 - 0,0
20.07.2019 05:00:00 16,6 16,6 25 14 34 18 W 1008,6 10 0,0
20.07.2019 04:00:00 16,8 16,8 22 12 37 20 WZW 1008,6 - 0,0
20.07.2019 03:00:00 16,5 16,5 27 15 50 27 WZW 1008,7 - 0,0
20.07.2019 02:00:00 17,4 17,4 35 19 53 29 ZW 1008,4 0,8 0,2
20.07.2019 01:00:00 17,2 17,2 36 19 54 29 ZZW 1008,6 - 0,2
20.07.2019 00:00:00 17,3 17,3 43 23 56 30 ZZW 1008,6 - 0,6
19.07.2019 23:00:00 17,2 17,2 33 18 48 26 ZZW 1009,3 0,8 0,2
19.07.2019 22:00:00 17,2 17,2 33 18 44 24 ZZW 1009,2 - 0,0
19.07.2019 21:00:00 17,4 17,4 31 17 42 23 ZZW 1009,6 - 0,4
19.07.2019 20:00:00 17,5 17,5 30 16 41 22 ZZW 1010,4 0,2 0,0
19.07.2019 19:00:00 17,7 17,5 26 14 39 21 ZZW 1010,9 - 0,0
19.07.2019 18:00:00 18,0 17,7 27 15 40 22 ZZW 1011,3 - 0,0
19.07.2019 17:00:00 18,3 18,0 25 14 46 25 ZZW 1011,6 0,2 0,0
19.07.2019 16:00:00 18,1 18,1 24 13 41 22 ZZW 1012,2 - 0,0
19.07.2019 15:00:00 19,0 17,8 29 16 43 23 ZZW 1012,2 - 0,0
19.07.2019 14:00:00 19,2 18,0 32 17 43 23 ZZW 1012,2 2,0 0,0
19.07.2019 13:00:00 19,5 18,5 30 16 44 24 ZZW 1012,3 - 0,0
19.07.2019 12:00:00 18,1 18,1 27 14 47 26 ZZW 1012,5 - 0,2
19.07.2019 11:00:00 18,2 17,9 28 15 48 26 ZW 1012,7 4,0 0,0
19.07.2019 10:00:00 18,5 18,5 30 16 46 25 ZW 1012,8 - 0,0
19.07.2019 09:00:00 17,2 17,2 34 19 48 26 ZZW 1012,6 - 0,0
19.07.2019 08:00:00 16,5 16,5 31 17 47 25 ZZW 1012,8 0,8 0,2
19.07.2019 07:00:00 16,7 16,7 33 18 45 24 ZZW 1013,0 - 0,0
19.07.2019 06:00:00 16,7 16,4 31 17 42 23 ZZW 1013,0 - 0,0
19.07.2019 05:00:00 15,9 15,6 25 13 32 18 ZZW 1013,7 20 0,0
19.07.2019 04:00:00 16,0 15,4 24 13 32 17 ZZW 1013,9 - 0,0
19.07.2019 03:00:00 15,9 15,1 19 10 24 13 ZZW 1014,7 - 0,0
19.07.2019 02:00:00 15,7 14,9 19 10 25 14 ZW 1015,0 20 0,0
19.07.2019 01:00:00 15,2 14,6 16 8 23 12 ZW 1015,4 - 0,0
19.07.2019 00:00:00 15,3 14,2 16 9 20 11 ZW 1015,7 - 0,0
18.07.2019 23:00:00 15,8 14,5 14 8 19 11 ZW 1015,9 - 0,0
18.07.2019 22:00:00 16,2 13,7 16 9 22 12 WZW 1015,6 - 0,0
18.07.2019 21:00:00 18,1 14,2 16 9 23 12 W 1015,5 - 0,0
18.07.2019 20:00:00 18,6 14,7 17 9 25 14 W 1015,3 25 0,0
18.07.2019 19:00:00 19,3 15,0 21 11 31 17 W 1015,4 - 0,0
18.07.2019 18:00:00 19,7 14,7 22 12 30 16 W 1015,3 - 0,0
18.07.2019 17:00:00 19,9 14,7 20 11 31 17 W 1015,2 20 0,0
18.07.2019 16:00:00 20,2 15,2 21 11 27 14 WNW 1015,2 - 0,0
18.07.2019 15:00:00 19,0 15,3 20 11 25 14 WNW 1015,2 - 0,0
18.07.2019 14:00:00 20,0 15,4 14 8 24 13 WNW 1015,1 - 0,0
18.07.2019 13:00:00 19,2 15,9 14 8 27 15 NW 1015,1 - 0,0
18.07.2019 12:00:00 18,3 16,1 16 8 26 14 NW 1014,8 - 0,0
18.07.2019 11:00:00 18,2 16,9 13 7 19 10 WNW 1014,4 - 0,0
18.07.2019 10:00:00 17,3 16,2 15 8 29 15 NW 1014,1 - 0,0
18.07.2019 09:00:00 17,3 16,8 18 10 26 14 W 1013,9 - 0,0
18.07.2019 08:00:00 16,6 16,6 18 10 26 14 W 1013,4 8 0,0
18.07.2019 07:00:00 16,5 16,5 23 12 30 16 W 1013,3 - 0,0
18.07.2019 06:00:00 16,4 16,4 19 10 29 16 WZW 1013,1 - 0,2
18.07.2019 05:00:00 16,6 16,6 22 12 39 21 WZW 1013,2 6 0,0
18.07.2019 04:00:00 16,7 16,7 28 15 40 21 WZW 1013,5 - 0,2
18.07.2019 03:00:00 16,6 16,6 27 15 40 21 ZW 1014,2 - 0,0
18.07.2019 02:00:00 16,6 16,4 26 14 35 19 ZW 1014,6 8 0,0
18.07.2019 01:00:00 16,6 16,0 23 12 31 17 ZW 1015,0 - 0,0
18.07.2019 00:00:00 15,7 15,2 19 11 27 15 ZW 1015,5 - 0,0

tt = temperatuur
td = dauwpunt
ff = windsnelheid
fx = windstoten
dd = windrichting
ppp = luchtdruk
vv = zicht
rr = neerslag

Weerstations in de omgeving